Lincoln, IL

9:47 AM CST on December 06, 2019 (GMT -0600)
Lincoln

Weather History for KAAA - August, 2019

Change the Weather History Date:

Saturday, August 31, 2019

  Actual Average (WUND) Record (WUND)
Temperature  
Mean Temperature 69 °F -  
Max Temperature 77 °F - - (-1)
Min Temperature 61 °F - - (-1)
Cooling Degree Days 4    
Growing Degree Days 19 (Base 50)    
Moisture  
Dew Point 60 °F    
Average Humidity 76    
Maximum Humidity 96    
Minimum Humidity 60    
Precipitation  
Precipitation 0.00 in - - ()
Sea Level Pressure  
Sea Level Pressure 30.18 in    
Wind  
Wind Speed 6 mph ()    
Max Wind Speed 12 mph    
Max Gust Speed -    
Visibility 10.0 miles    
Events      
Averages and records for this station are not official NWS values.
T = Trace of Precipitation, MM = Missing Value Source: Averaged Metar Reports

Daily Weather History Graph

Daily Weather History Graph

Search for Another Location

Airport or City:

Astronomy

Aug. 31, 2019 Rise Set
Actual Time 6:23 AM CDT 7:30 PM CDT
Civil Twilight 5:55 AM CDT 7:58 PM CDT
Nautical Twilight 5:22 AM CDT 8:31 PM CDT
Astronomical Twilight 4:47 AM CDT 9:06 PM CDT
Moon 7:39 AM CDT (8/31) 8:43 PM CDT (8/31)
Length of Visible Light 14h 02m
Length of Day
13h 07m
New Moon, 3% of the Moon is Illuminated
Aug 31
New Moon
Sep 5
First Quarter
Sep 13
Full
Sep 21
Last Quarter
Sep 28
New

Hourly Weather History & Observations

Time (CDT) Temp. Dew Point Humidity Pressure Visibility Wind Dir Wind Speed Gust Speed Precip Events Conditions
12:15 AM 63.7 °F 58.1 °F 82% 30.21 in 10.0 mi NNE 5.8 mph - N/A   Overcast
12:35 AM 63.7 °F 57.9 °F 81% 30.21 in 10.0 mi NE 3.5 mph - N/A   Overcast
12:55 AM 62.8 °F 58.1 °F 85% 30.21 in 10.0 mi NNE 5.8 mph - N/A   Overcast
1:15 AM 62.2 °F 57.7 °F 85% 30.22 in 10.0 mi NE 4.6 mph - N/A   Scattered Clouds
1:35 AM 61.7 °F 58.1 °F 88% 30.21 in 10.0 mi ENE 5.8 mph - N/A   Mostly Cloudy
1:55 AM 62.8 °F 57.7 °F 84% 30.21 in 10.0 mi ENE 6.9 mph - N/A   Overcast
2:15 AM 62.6 °F 57.6 °F 84% 30.20 in 10.0 mi East 4.6 mph - N/A   Scattered Clouds
2:35 AM 61.7 °F 57.0 °F 85% 30.20 in 10.0 mi ENE 4.6 mph - N/A   Clear
2:55 AM 61.9 °F 55.8 °F 80% 30.19 in 10.0 mi East 6.9 mph - N/A   Scattered Clouds
3:15 AM 62.8 °F 54.0 °F 73% 30.19 in 10.0 mi East 5.8 mph - N/A   Mostly Cloudy
3:35 AM 62.2 °F 53.6 °F 73% 30.20 in 10.0 mi ENE 6.9 mph - N/A   Mostly Cloudy
3:55 AM 61.2 °F 53.2 °F 75% 30.20 in 10.0 mi ENE 6.9 mph - N/A   Scattered Clouds
4:15 AM 61.7 °F 52.9 °F 73% 30.19 in 10.0 mi NE 8.1 mph - N/A   Mostly Cloudy
4:35 AM 62.8 °F 52.0 °F 68% 30.19 in 10.0 mi ENE 9.2 mph - N/A   Overcast
4:55 AM 63.0 °F 51.6 °F 66% 30.18 in 10.0 mi ENE 10.4 mph - N/A   Overcast
5:15 AM 63.0 °F 51.3 °F 66% 30.19 in 10.0 mi ENE 9.2 mph - N/A   Overcast
5:35 AM 63.0 °F 50.9 °F 65% 30.19 in 10.0 mi ENE 8.1 mph - N/A   Overcast
5:55 AM 62.8 °F 50.0 °F 63% 30.20 in 10.0 mi ENE 9.2 mph - N/A   Overcast
6:15 AM 62.1 °F 50.0 °F 65% 30.20 in 10.0 mi NE 6.9 mph - N/A   Overcast
6:35 AM 62.1 °F 49.3 °F 63% 30.20 in 10.0 mi NE 6.9 mph - N/A   Overcast
6:55 AM 61.9 °F 49.3 °F 63% 30.21 in 10.0 mi NE 6.9 mph - N/A   Overcast
7:15 AM 62.2 °F 48.4 °F 60% 30.20 in 10.0 mi ENE 8.1 mph - N/A   Overcast
7:35 AM 62.2 °F 49.3 °F 63% 30.20 in 10.0 mi ENE 9.2 mph - N/A   Overcast
7:55 AM 62.6 °F 50.2 °F 64% 30.20 in 10.0 mi ENE 9.2 mph - N/A   Overcast
8:15 AM 63.0 °F 52.2 °F 68% 30.20 in 10.0 mi ENE 9.2 mph - N/A   Overcast
8:35 AM 63.5 °F 53.6 °F 70% 30.20 in 10.0 mi ENE 8.1 mph - N/A   Overcast
8:55 AM 64.2 °F 54.9 °F 72% 30.21 in 10.0 mi ENE 10.4 mph - N/A   Overcast
9:15 AM 65.7 °F 56.5 °F 72% 30.21 in 10.0 mi ENE 8.1 mph - N/A   Overcast
9:35 AM 67.1 °F 57.6 °F 71% 30.21 in 10.0 mi East 9.2 mph - N/A   Overcast
9:55 AM 68.7 °F 57.4 °F 67% 30.21 in 10.0 mi East 11.5 mph - N/A   Overcast
10:15 AM 69.1 °F 58.5 °F 69% 30.21 in 10.0 mi East 8.1 mph - N/A   Overcast
10:35 AM 69.3 °F 58.3 °F 68% 30.21 in 10.0 mi East 9.2 mph - N/A   Overcast
10:55 AM 69.8 °F 59.4 °F 69% 30.21 in 10.0 mi ENE 8.1 mph - N/A   Overcast
11:15 AM 70.0 °F 59.2 °F 68% 30.21 in 10.0 mi East 8.1 mph - N/A   Overcast
11:35 AM 70.2 °F 59.5 °F 69% 30.21 in 10.0 mi East 8.1 mph - N/A   Overcast
11:55 AM 72.3 °F 60.8 °F 67% 30.21 in 10.0 mi ENE 10.4 mph - N/A   Scattered Clouds
12:15 PM 72.5 °F 60.6 °F 66% 30.20 in 10.0 mi ENE 9.2 mph - N/A   Scattered Clouds
12:35 PM 72.0 °F 61.3 °F 69% 30.20 in 10.0 mi East 9.2 mph - N/A   Mostly Cloudy
12:55 PM 73.6 °F 62.2 °F 68% 30.19 in 10.0 mi East 6.9 mph - N/A   Overcast
1:15 PM 72.5 °F 62.6 °F 71% 30.20 in 10.0 mi ENE 10.4 mph - N/A   Overcast
1:35 PM 73.0 °F 62.8 °F 70% 30.19 in 10.0 mi East 9.2 mph - N/A   Overcast
1:55 PM 73.0 °F 63.1 °F 71% 30.19 in 10.0 mi ENE 8.1 mph - N/A   Overcast
2:15 PM 73.8 °F 63.7 °F 71% 30.18 in 10.0 mi ENE 9.2 mph - N/A   Overcast
2:35 PM 74.5 °F 64.9 °F 72% 30.17 in 10.0 mi ENE 8.1 mph - N/A   Overcast
2:55 PM 75.4 °F 65.3 °F 71% 30.17 in 10.0 mi ENE 6.9 mph - N/A   Overcast
3:15 PM 75.7 °F 65.8 °F 71% 30.16 in 10.0 mi East 8.1 mph - N/A   Overcast
3:35 PM 76.1 °F 66.0 °F 71% 30.15 in 10.0 mi ENE 10.4 mph - N/A   Overcast
3:55 PM 76.3 °F 66.4 °F 71% 30.15 in 10.0 mi ENE 9.2 mph - N/A   Mostly Cloudy
4:15 PM 77.4 °F 67.5 °F 71% 30.15 in 10.0 mi East 9.2 mph - N/A   Mostly Cloudy
4:35 PM 77.0 °F 66.9 °F 71% 30.14 in 10.0 mi ENE 11.5 mph - N/A   Mostly Cloudy
4:55 PM 77.7 °F 67.6 °F 71% 30.14 in 10.0 mi ENE 9.2 mph - N/A   Mostly Cloudy
5:15 PM 76.3 °F 67.3 °F 74% 30.14 in 10.0 mi East 6.9 mph - N/A   Overcast
5:35 PM 75.7 °F 67.5 °F 75% 30.14 in 10.0 mi ENE 8.1 mph - N/A   Overcast
5:55 PM 76.3 °F 67.6 °F 74% 30.14 in 10.0 mi East 6.9 mph - N/A   Overcast
6:15 PM 75.6 °F 67.5 °F 76% 30.14 in 10.0 mi ENE 5.8 mph - N/A   Overcast
6:35 PM 74.8 °F 68.0 °F 79% 30.14 in 10.0 mi ENE 4.6 mph - N/A   Overcast
6:55 PM 74.5 °F 67.6 °F 79% 30.13 in 10.0 mi East 4.6 mph - N/A   Overcast
7:15 PM 73.9 °F 67.5 °F 80% 30.13 in 10.0 mi ENE 4.6 mph - N/A   Overcast
7:35 PM 73.0 °F 67.6 °F 83% 30.13 in 10.0 mi ENE 4.6 mph - N/A   Mostly Cloudy
7:55 PM 71.2 °F 68.2 °F 90% 30.13 in 10.0 mi NE 3.5 mph - N/A   Mostly Cloudy
8:15 PM 71.2 °F 68.0 °F 89% 30.13 in 10.0 mi Calm Calm - N/A   Mostly Cloudy
8:35 PM 70.3 °F 68.0 °F 92% 30.13 in 10.0 mi NE 3.5 mph - N/A   Overcast
8:55 PM 69.8 °F 68.0 °F 94% 30.14 in 10.0 mi NNE 3.5 mph - N/A   Overcast
9:15 PM 70.9 °F 68.0 °F 91% 30.14 in 10.0 mi NE 4.6 mph - N/A   Overcast
9:35 PM 70.0 °F 68.0 °F 93% 30.14 in 10.0 mi NE 3.5 mph - N/A   Overcast
9:55 PM 70.0 °F 67.5 °F 92% 30.14 in 10.0 mi ENE 4.6 mph - N/A   Scattered Clouds
10:15 PM 68.7 °F 67.3 °F 95% 30.14 in 10.0 mi Calm Calm - N/A   Clear
10:35 PM 68.4 °F 67.1 °F 96% 30.14 in 10.0 mi ENE 4.6 mph - N/A   Scattered Clouds
10:55 PM 68.4 °F 66.7 °F 95% 30.13 in 10.0 mi ENE 5.8 mph - N/A   Scattered Clouds
11:15 PM 68.0 °F 66.4 °F 95% 30.14 in 10.0 mi NE 3.5 mph - N/A   Scattered Clouds
11:35 PM 68.0 °F 66.2 °F 94% 30.14 in 10.0 mi Calm Calm - N/A   Clear
11:55 PM 67.5 °F 66.2 °F 96% 30.14 in 10.0 mi Calm Calm - N/A   Scattered Clouds